TimeCST,TemperatureF,Dew PointF,Humidity,Sea Level PressureIn,VisibilityMPH,Wind Direction,Wind SpeedMPH,Gust SpeedMPH,PrecipitationIn,Events,Conditions,WindDirDegrees,DateUTC
12:53 AM,24.1,16.0,71,30.25,10.0,Calm,Calm,-,N/A,,Clear,0,2012-12-12 06:53:00
1:53 AM,23.0,16.0,74,30.26,10.0,Calm,Calm,-,N/A,,Clear,0,2012-12-12 07:53:00
2:53 AM,24.1,16.0,71,30.26,10.0,Calm,Calm,-,N/A,,Clear,0,2012-12-12 08:53:00
3:53 AM,19.9,15.1,81,30.26,10.0,Calm,Calm,-,N/A,,Clear,0,2012-12-12 09:53:00
4:53 AM,19.0,14.0,81,30.27,10.0,Calm,Calm,-,N/A,,Clear,0,2012-12-12 10:53:00
5:53 AM,21.0,15.1,78,30.30,10.0,Calm,Calm,-,N/A,,Clear,0,2012-12-12 11:53:00
6:53 AM,19.9,14.0,78,30.32,10.0,Calm,Calm,-,N/A,,Clear,0,2012-12-12 12:53:00
7:53 AM,24.1,18.0,77,30.33,10.0,Calm,Calm,-,N/A,,Clear,0,2012-12-12 13:53:00
8:53 AM,35.1,25.0,67,30.35,10.0,Calm,Calm,-,N/A,,Clear,0,2012-12-12 14:53:00
9:53 AM,39.9,21.0,47,30.36,10.0,Calm,Calm,-,N/A,,Clear,0,2012-12-12 15:53:00
11:53 AM,46.9,10.9,23,30.32,10.0,SSE,6.9,-,N/A,,Clear,160,2012-12-12 17:53:00
12:53 PM,48.0,10.9,22,30.30,10.0,South,6.9,-,N/A,,Clear,180,2012-12-12 18:53:00
1:53 PM,48.9,10.9,22,30.29,10.0,South,8.1,-,N/A,,Clear,180,2012-12-12 19:53:00
2:53 PM,48.0,12.0,24,30.28,10.0,South,6.9,-,N/A,,Clear,170,2012-12-12 20:53:00
3:53 PM,48.0,14.0,26,30.30,10.0,South,8.1,-,N/A,,Clear,170,2012-12-12 21:53:00
4:53 PM,44.1,17.1,34,30.30,10.0,SSE,5.8,-,N/A,,Clear,150,2012-12-12 22:53:00
5:53 PM,37.9,17.1,43,30.31,10.0,SSE,3.5,-,N/A,,Clear,150,2012-12-12 23:53:00
6:53 PM,39.0,15.1,38,30.30,10.0,SSE,5.8,-,N/A,,Clear,150,2012-12-13 00:53:00
7:53 PM,37.0,18.0,46,30.32,10.0,SSE,6.9,-,N/A,,Clear,150,2012-12-13 01:53:00
8:53 PM,35.1,19.0,52,30.32,10.0,SE,5.8,-,N/A,,Clear,140,2012-12-13 02:53:00
9:53 PM,35.1,21.9,59,30.32,10.0,South,5.8,-,N/A,,Clear,170,2012-12-13 03:53:00
10:53 PM,35.1,21.9,59,30.31,10.0,South,6.9,-,N/A,,Clear,170,2012-12-13 04:53:00
11:53 PM,35.1,21.0,57,30.31,10.0,South,6.9,-,N/A,,Clear,170,2012-12-13 05:53:00